Theta_e
330 332 336 328 310 309 305 306 313 312 313 321 321 320 319 322 318 316 339 341 340 336 343 340 346 348 348 347 347 347 348 347 347 346 344 343 341 339 338 338 341 339 336 336 335 335 335 334 334
326 327 329 320 306 301 303 310 309 314 318 322 322 322 321 321 331 331 334 341 338 338 341 338 344 347 347 347 348 348 347 346 346 345 343 342 339 339 337 337 338 337 336 335 335 335 335 335 334
323 326 320 311 305 301 303 310 313 316 321 322 322 327 325 325 332 333 340 341 338 339 340 340 344 347 347 347 348 347 346 346 345 343 342 341 339 338 337 336 336 335 334 333 333 335 336 335 334
321 322 319 307 303 307 309 313 315 316 322 322 324 320 328 333 333 338 341 340 338 338 340 342 345 347 346 346 346 347 346 346 345 342 341 340 339 340 339 336 335 334 333 332 333 333 332 331 331
321 318 308 304 305 308 312 316 315 316 320 321 324 320 325 332 339 340 340 339 337 336 340 341 344 345 346 345 345 345 345 345 344 343 340 340 339 341 339 336 334 333 332 332 331 330 329 328 327
314 315 305 302 304 309 312 316 315 316 321 321 321 322 326 336 337 338 339 337 337 335 340 339 338 340 342 343 343 342 342 342 342 342 341 340 339 339 338 334 332 332 331 330 328 327 327 326 326
312 310 304 305 305 306 310 315 313 316 319 319 325 319 327 331 335 337 338 338 337 336 338 338 340 339 336 338 338 339 340 340 340 340 340 338 338 337 336 336 334 332 331 329 327 326 326 326 326
315 312 305 306 305 305 312 313 316 315 315 326 328 318 321 331 334 336 336 337 334 335 336 336 337 339 339 338 332 334 336 337 337 336 334 333 333 333 333 331 333 332 330 329 326 325 325 326 326
317 306 303 305 306 307 313 311 316 319 317 322 326 327 330 334 334 333 334 332 331 332 334 337 336 335 337 335 333 330 331 332 331 330 327 326 330 330 327 328 332 333 331 329 326 326 326 327 327
311 306 305 310 311 309 312 312 314 314 315 319 324 328 333 332 330 328 330 327 328 330 332 337 336 334 335 334 336 336 333 333 331 332 331 329 330 330 329 325 328 330 330 329 328 329 330 326 327
311 306 311 312 313 313 311 311 313 312 311 317 320 326 330 327 327 326 327 328 328 330 333 334 336 335 336 333 335 334 333 334 334 332 332 331 329 330 329 330 328 329 324 328 328 330 329 328 328
307 311 312 313 315 312 310 313 311 312 314 320 324 329 329 325 327 328 328 329 327 329 330 333 335 335 336 335 335 334 333 334 334 332 331 330 329 329 329 328 329 330 329 328 329 328 329 328 328
307 309 311 313 313 311 312 310 310 311 315 317 320 327 327 328 328 330 331 331 328 327 329 333 334 335 335 335 335 335 333 334 334 332 331 330 329 329 328 328 328 328 328 328 327 328 328 328 328
305 307 308 311 310 311 308 309 312 312 315 315 316 319 325 328 329 328 330 331 328 327 328 332 333 333 334 334 334 335 335 335 335 332 332 330 329 329 328 327 327 327 328 328 328 328 328 328 328
302 299 305 306 309 308 311 305 308 313 315 313 314 317 320 325 330 329 330 331 329 328 330 330 331 333 333 333 334 335 336 335 334 332 332 331 330 329 328 328 327 328 328 328 328 329 329 328 329
296 299 295 304 307 310 307 301 310 315 313 313 314 317 319 321 327 331 332 333 332 330 328 331 331 331 332 333 333 334 335 335 334 333 332 332 331 330 330 329 329 329 329 328 327 328 327 328 329
292 288 291 295 306 307 306 302 309 314 313 312 314 314 317 321 323 328 332 333 333 333 330 330 332 330 331 331 333 333 335 334 334 333 332 332 332 332 331 330 330 331 330 329 328 328 329 328 328
285 286 289 291 299 303 301 302 307 311 312 313 314 314 315 317 321 325 330 333 333 334 333 331 331 331 330 331 331 333 333 333 333 333 333 333 332 332 332 331 331 332 331 330 330 329 331 328 327
289 288 288 292 299 295 296 298 302 309 310 310 312 313 314 315 319 324 327 332 333 333 332 332 330 330 329 329 328 330 329 331 333 334 334 334 334 333 333 332 332 333 331 331 332 332 330 329 331
285 284 285 291 294 292 292 293 298 302 306 310 311 312 313 315 317 319 326 327 331 332 332 332 331 331 329 329 329 331 331 333 333 334 334 335 336 335 334 332 329 329 329 329 329 331 329 327 328
282 282 283 284 289 292 290 288 291 297 301 304 307 312 314 314 315 317 320 327 328 330 332 332 332 332 329 330 331 331 334 333 331 331 333 335 335 333 331 330 331 332 331 330 332 332 330 325 327
278 285 284 283 283 280 290 280 289 293 294 299 302 305 310 313 315 316 317 324 328 328 333 333 333 333 331 331 331 331 330 328 331 332 335 335 335 333 332 331 332 331 331 330 330 329 329 326 323
280 285 285 285 282 283 283 281 286 292 291 295 298 304 307 312 314 315 316 318 327 331 332 333 333 333 334 333 335 333 331 332 333 333 335 333 333 332 331 331 330 330 330 329 328 328 326 326 325
286 283 282 283 282 275 281 281 282 287 291 294 298 301 303 307 312 315 317 318 319 330 334 334 332 332 334 335 335 333 332 332 333 333 331 330 331 329 325 329 330 329 329 328 328 327 326 325 325
285 280 274 272 273 272 282 280 283 290 292 295 298 301 304 306 307 311 314 316 316 321 329 333 333 331 332 333 334 334 333 333 333 332 330 329 322 316 315 317 318 318 319 320 324 325 324 324 324
282 281 274 269 271 275 282 276 283 293 296 297 298 300 301 302 307 309 312 315 317 315 321 327 331 330 330 329 329 332 332 327 321 318 314 312 310 310 311 313 312 310 312 314 317 318 317 319 320
280 277 283 276 277 273 277 282 287 292 291 294 296 298 300 302 303 307 310 313 314 317 319 322 326 325 322 318 318 316 315 313 310 309 309 307 307 306 305 305 304 304 305 307 310 307 308 310 310
283 284 276 277 268 268 274 278 280 286 288 291 293 294 297 301 301 303 305 309 313 312 312 313 314 311 311 311 311 309 307 306 305 304 302 301 301 301 301 301 300 300 301 302 304 303 303 304 304
280 279 279 279 277 271 270 276 288 288 290 290 291 294 295 297 299 300 302 305 306 305 305 304 306 304 303 302 302 301 300 300 300 299 298 298 298 298 298 298 298 297 297 298 298 298 298 299 298
283 280 280 274 273 276 275 275 288 288 289 291 291 292 295 296 296 297 299 301 300 299 298 298 299 299 301 301 299 298 296 296 296 295 296 296 294 295 295 295 294 294 294 294 294 294 294 294 293
Wind_Speed
16 6 5 5 7 6 12 5 5 5 7 3 2 4 6 13 9 5 9 7 18 17 18 16 12 14 13 13 12 12 12 14 15 17 16 14 15 14 14 13 11 13 13 13 12 11 12 12 13
12 6 5 6 9 10 10 7 10 5 5 0 2 3 5 7 8 9 10 8 17 18 17 16 12 14 14 14 13 14 14 15 15 15 14 14 14 15 14 12 11 12 12 11 12 11 12 11 11
11 6 7 5 11 10 6 8 7 1 3 5 3 3 4 6 8 12 7 15 17 17 16 16 13 15 15 14 13 14 14 15 15 14 13 14 14 13 14 13 11 10 10 10 11 11 10 10 9
5 5 5 9 11 14 3 6 2 5 6 4 4 5 6 5 7 6 14 18 16 17 16 17 15 16 16 14 13 13 12 12 13 13 12 13 12 12 12 14 12 10 9 9 9 9 9 8 8
7 6 9 11 15 9 7 1 2 5 8 7 6 5 5 5 7 11 16 16 16 16 16 16 13 14 14 14 13 12 12 11 11 11 11 10 8 12 14 12 11 10 8 8 7 7 6 6 6
8 5 10 12 15 10 6 4 3 7 8 6 6 3 7 8 10 13 16 15 15 15 15 16 12 11 11 12 11 11 10 10 9 8 10 10 8 8 11 12 9 9 7 7 6 5 4 4 4
13 9 13 15 13 11 10 5 8 8 9 10 3 7 7 11 11 12 15 15 15 15 16 13 15 13 9 10 10 10 10 10 9 9 10 9 8 8 9 9 9 7 6 4 4 3 2 2 2
7 11 19 15 11 12 8 7 2 7 7 5 2 5 8 13 15 14 14 14 14 15 15 12 13 14 13 11 8 9 9 9 8 9 9 7 8 7 7 7 6 6 4 2 1 0 1 2 2
5 11 14 18 17 13 8 9 7 1 6 6 4 5 5 21 17 14 15 15 14 13 14 13 11 14 14 13 10 8 7 7 7 8 7 8 7 8 9 6 8 6 4 2 2 1 2 4 7
12 13 21 18 16 11 11 11 8 7 9 9 8 5 14 18 17 17 17 17 16 16 15 14 13 15 14 11 13 11 10 9 9 9 10 8 7 7 4 7 6 3 2 3 4 4 5 8 4
11 20 18 22 15 13 13 11 6 10 10 10 14 12 17 15 16 17 14 15 16 16 12 10 10 14 14 9 7 6 5 5 7 9 9 8 6 4 4 5 5 6 7 6 8 7 6 3 4
18 18 21 18 10 12 17 14 13 14 11 5 2 17 16 18 19 19 18 17 17 18 16 12 13 13 14 8 6 7 6 5 6 8 9 6 5 5 5 4 5 4 4 4 4 3 3 5 5
15 19 19 19 14 12 15 17 16 16 15 6 7 12 16 16 17 16 16 17 16 17 17 17 10 8 10 7 6 6 6 6 8 8 9 7 7 6 5 5 4 4 4 4 4 4 4 5 5
3 10 15 13 15 19 16 19 20 16 14 12 11 12 15 17 19 16 18 18 18 17 17 16 17 10 8 5 8 6 5 8 7 7 8 10 7 6 6 5 5 5 5 4 4 5 4 5 5
7 9 14 19 17 14 16 24 26 19 15 17 16 13 13 16 18 20 19 18 17 16 17 17 15 15 11 9 6 6 8 8 7 7 9 10 9 8 7 6 5 5 5 5 5 6 5 5 6
8 14 17 15 20 19 14 23 24 25 22 19 18 15 12 14 18 19 19 18 17 16 18 18 14 15 14 10 7 6 7 8 8 8 7 10 10 10 8 6 6 5 5 5 5 5 5 5 5
14 15 22 22 20 20 23 17 24 21 24 24 21 20 16 14 15 17 19 18 18 18 18 18 19 16 14 13 9 9 12 9 8 8 8 10 11 10 9 7 6 7 6 6 6 5 6 5 5
14 20 20 18 18 11 19 21 21 16 26 21 23 23 21 19 17 16 18 18 18 18 17 18 15 17 14 9 9 9 8 7 7 8 8 11 10 12 9 8 7 7 6 6 6 6 5 4 6
14 14 15 16 6 6 15 20 20 22 21 16 20 21 22 23 18 16 16 18 18 18 19 19 18 17 12 10 10 9 9 7 9 9 11 11 11 11 10 7 7 6 5 5 6 5 5 4 2
13 14 15 15 15 14 19 25 21 22 23 22 19 18 20 21 21 18 16 17 19 20 19 18 19 18 15 11 11 9 9 10 9 8 10 11 10 10 8 7 6 6 5 7 7 7 4 1 2
11 14 14 16 11 17 19 28 27 25 24 23 23 22 21 18 19 18 18 18 18 19 20 18 17 17 15 14 11 8 10 9 8 7 8 9 10 8 9 9 8 8 8 6 7 6 6 4 3
11 8 9 14 12 11 8 18 18 23 32 29 25 24 22 22 20 17 18 18 18 18 16 18 17 18 15 15 12 15 11 10 8 8 8 8 11 11 9 8 6 5 3 4 3 2 2 3 4
6 5 10 10 13 14 19 15 9 19 20 15 25 23 23 23 22 22 19 15 18 17 14 15 17 17 17 18 17 13 11 9 9 9 10 8 6 6 6 5 5 4 3 3 4 4 5 5 4
7 9 9 11 10 11 18 17 12 15 16 13 17 18 19 22 21 19 17 15 14 13 13 13 15 16 15 17 18 16 15 12 8 6 5 5 4 4 4 0 3 3 3 4 4 5 5 4 4
7 6 4 6 8 11 7 15 20 14 19 16 12 7 8 9 16 18 16 14 13 13 13 12 16 16 15 16 16 16 15 14 11 9 5 6 5 4 6 6 6 4 4 4 3 1 2 2 1
8 11 8 8 7 11 12 10 15 5 3 11 14 9 9 8 9 11 11 14 11 9 9 12 13 13 14 13 14 13 12 3 6 9 7 6 6 5 5 6 6 6 6 4 6 5 5 4 4
2 9 15 17 17 12 9 14 18 11 9 8 7 7 8 10 4 10 9 9 8 6 7 9 11 6 5 8 7 8 9 11 10 11 8 6 6 4 6 4 8 7 9 7 7 6 6 6 6
14 3 5 8 7 13 11 15 11 8 15 12 10 11 12 10 8 7 7 5 1 5 3 6 9 10 9 10 9 9 10 10 9 10 10 9 7 8 7 5 9 9 7 6 4 4 5 4 4
6 7 9 6 7 7 13 9 5 14 11 7 11 11 11 11 10 8 5 3 3 4 4 7 7 12 12 12 11 12 11 10 9 8 9 11 8 9 7 5 6 8 6 7 6 5 5 4 5
10 16 13 7 12 14 15 18 20 21 18 16 15 10 9 9 8 7 5 4 4 6 7 7 10 9 8 15 13 13 12 10 8 10 5 8 11 9 8 5 8 7 7 7 6 5 5 5 5
Wind_Direction
300 262 270 259 228 242 236 203 279 196 207 69 326 280 358 31 3 38 139 136 138 144 141 157 160 149 153 146 152 137 134 141 137 124 119 119 114 105 104 108 107 103 96 90 84 90 96 90 81
304 298 237 257 250 207 216 177 200 206 19 156 164 212 230 82 63 116 133 177 154 145 148 153 146 145 151 150 150 136 137 133 126 122 123 124 118 115 110 111 104 107 103 94 87 89 103 90 84
273 263 255 227 234 237 215 170 192 125 164 194 173 302 12 74 84 146 122 164 154 145 155 139 145 142 146 150 150 141 140 135 129 131 133 131 124 127 125 121 114 109 109 102 91 83 78 85 87
291 205 237 251 219 242 288 155 318 203 163 223 260 160 103 40 132 153 141 151 155 151 146 136 149 145 146 145 146 140 138 132 134 139 137 136 137 134 136 124 116 109 104 110 97 91 87 83 79
240 257 250 226 248 217 216 264 280 231 179 178 202 147 88 98 107 128 154 154 156 157 136 155 153 149 147 145 142 142 142 143 142 145 142 136 132 124 129 123 116 112 112 108 107 100 91 84 78
252 266 240 234 225 208 221 219 255 235 194 145 212 176 99 125 140 140 159 159 158 159 137 156 151 148 149 147 145 143 144 146 144 148 145 147 131 117 120 111 123 123 125 123 117 108 98 85 71
250 237 244 254 242 193 223 180 241 227 208 199 307 215 102 151 130 160 159 163 164 155 159 156 168 161 148 150 151 153 152 152 156 155 152 140 124 113 111 132 135 140 133 127 121 114 103 90 42
278 253 250 244 246 238 184 214 252 253 228 49 313 211 167 148 152 166 165 167 171 163 167 163 171 172 172 169 156 155 155 155 147 142 132 134 135 131 127 121 139 144 146 146 134 66 352 350 347
248 242 238 235 231 245 170 222 165 53 259 219 159 352 81 131 149 165 176 167 176 173 177 164 172 176 179 174 166 157 149 144 131 139 127 148 179 174 156 102 137 153 170 205 222 274 307 291 248
225 229 238 243 239 235 195 231 192 213 200 210 186 123 131 143 156 169 180 176 178 181 179 175 173 181 182 176 162 178 170 177 179 179 172 194 202 181 175 134 143 173 208 229 233 249 251 254 285
222 235 233 247 253 269 245 221 221 236 240 228 206 163 158 163 168 176 186 192 179 191 161 191 190 186 182 184 166 181 177 182 180 186 179 202 191 174 202 177 194 216 199 235 198 200 234 339 303
239 234 242 242 237 248 253 242 227 238 241 14 137 150 166 180 183 184 187 195 191 188 184 181 209 197 189 173 180 180 184 184 187 184 189 182 191 185 203 211 200 201 206 229 240 254 257 273 273
247 247 233 255 249 238 252 252 239 237 244 157 158 163 181 189 193 193 197 199 192 195 189 183 196 217 207 156 187 189 199 183 197 184 188 188 193 190 202 204 214 215 215 232 244 249 260 267 269
1 265 273 250 249 241 242 243 245 241 237 202 185 192 196 197 193 196 204 202 194 198 194 188 185 191 221 192 196 190 206 196 200 191 191 199 199 192 199 201 211 224 224 233 240 258 269 279 278
277 267 248 239 244 242 233 249 241 234 221 223 216 214 207 203 193 201 204 208 200 199 187 194 200 181 193 195 229 213 198 210 201 202 200 198 205 201 207 210 208 219 223 231 247 247 244 250 252
243 236 247 233 233 231 231 244 227 233 235 222 228 218 200 211 206 201 202 211 202 202 195 191 193 201 195 191 197 239 227 208 205 205 207 208 209 214 210 219 220 226 224 229 241 251 249 260 265
229 243 227 246 233 224 219 248 245 239 225 236 229 234 218 206 211 210 205 200 205 204 197 193 192 196 200 199 191 209 226 212 214 207 206 208 215 215 219 218 222 217 217 224 229 234 251 266 281
240 230 244 238 213 223 254 255 254 245 241 226 233 234 235 224 213 207 207 201 203 202 203 197 192 196 192 193 197 203 226 215 221 215 215 205 211 215 217 225 223 221 223 230 228 238 246 255 279
322 298 292 240 174 312 256 256 257 253 255 245 243 234 236 233 223 210 200 202 201 201 204 203 193 190 194 186 186 208 206 205 215 219 219 218 215 211 216 224 224 222 229 238 238 241 240 253 260
283 273 267 271 283 285 273 264 261 259 258 258 244 241 247 236 234 217 193 203 204 201 202 204 202 189 195 191 195 200 204 211 215 209 214 213 210 214 210 207 207 210 217 234 246 242 241 199 218
263 267 272 269 298 294 283 272 260 254 255 257 260 259 248 238 241 230 210 197 209 207 203 201 199 192 194 193 189 192 207 222 208 208 208 203 201 205 208 207 212 213 211 234 228 230 217 215 216
276 312 285 267 269 262 321 278 258 230 233 231 238 241 250 243 245 237 231 206 206 210 208 205 203 197 189 190 191 201 204 201 204 201 204 200 194 201 200 212 216 227 193 212 240 274 183 197 244
265 339 298 280 255 269 263 271 277 223 253 245 229 230 235 237 241 240 232 224 212 209 202 203 206 207 190 192 202 199 204 203 204 202 185 198 184 183 188 187 197 203 207 223 221 211 208 211 236
304 288 254 260 261 254 244 246 265 247 255 246 249 252 237 229 233 240 240 225 222 211 202 193 205 206 203 196 200 201 201 206 204 161 160 176 146 110 60 341 210 201 211 214 211 225 222 228 238
244 263 259 222 215 241 239 217 247 300 305 301 308 319 319 283 247 233 234 238 206 209 199 200 202 204 200 199 203 207 206 205 199 185 163 137 111 79 53 42 33 22 23 7 340 297 51 15 343
246 242 258 241 243 289 225 235 234 215 333 292 237 287 294 273 290 281 256 231 220 209 205 206 204 205 200 202 207 207 212 113 85 98 94 88 86 93 71 60 62 43 13 22 39 37 35 20 12
2 232 257 282 286 280 257 248 263 248 258 263 253 281 301 314 298 309 311 276 252 172 199 212 196 189 113 112 112 98 108 114 115 102 103 102 106 105 98 66 90 51 50 30 52 52 30 39 25
244 311 261 214 256 250 260 251 255 222 241 257 296 324 342 337 320 319 301 271 8 84 100 106 124 108 98 98 99 95 93 95 100 99 91 81 60 75 70 37 66 61 36 44 42 55 19 43 40
238 228 219 285 250 270 270 259 7 40 22 13 355 346 330 326 324 317 311 276 144 115 113 101 103 117 112 101 100 100 92 84 88 100 108 104 94 63 51 57 79 81 66 51 50 56 35 48 53
263 280 256 241 244 248 258 269 302 307 305 273 312 312 319 301 300 308 282 218 161 125 106 100 102 93 104 115 114 101 88 85 72 68 88 87 105 101 92 75 66 68 66 68 62 58 44 51 51